SCP
0 0 0 0 0 0 0 0 0 0 0 0 0 0 0 0 0 0 0 0 0 0 0 0 0 0 0 0 0 0 0 0 0 0 0 0 0 0
0 0 0 0 0 0 0 0 0 0 0 0 0 0 0 0 0 0 0 0 0 0 0 0 0 0 0 0 0 0 0 0 0 0 0 0 0 0
0 0 0 0 0 0 0 0 0 0 0 0 0 0 0 0 0 0 0 0 0 0 0 0 0 0 0 0 0 0 0 0 0 0 0 0 0 0
0 0 0 0 0 0 0 0 0 0 0 0 0 0 0 0 0 0 0 0 0 0 0 0 0 0 0 0 0 0 0 0 0 0 0 0 0 0
0 0 0 0 0 0 0 0 0 0 0 0 0 0 0 0 0 0 0 0 0 0 0 0 0 0 0 0 0 0 0 0 0 0 0 0 0 0
0 0 0 0 0 0 0 0 0 0 0 0 0 0 0 0 0 0 0 0 0 0 0 0 0 0 0 0 0 0 0 0 0 0 0 0 0 0
0 0 0 0 0 0 0 0 0 0 0 0 0 0 0 0 0 0 0 0 0 0 0 0 0 0 0 0 0 0 0 0 0 0 0 0 0 0
0 0 0 0 0 0 -0 -0 -0 0 0 0 0 0 0 0 0 0 0 0 0 0 0 0 0 0 0 0 0 0 0 0 0 0 0 0 0 0
0 0 0 0 0 0 0 -0 -0 -0 -0 0 0 0 0 0 0 0 0 0 0 0 0 0 0 0 0 0 0 0 0 0 0 0 0 0 0 0
0 0 0 0 0 0 0 0 0 0 0 0 0 0 0 0 0 0 0 0 0 0 0 0 0 0 0 0 0 0 0 0 0 0 0 0 0 0
0 0 0 0 0 -0 -0 -0 0 0 0 0 0 0 0 -0 0 0 0 0 0 0 0 0 0 0 0 0 0 0 0 0 0 0 0 0 0 0
0 0 0 0 -0 0 -0 -0 0 0 0 0 0 0 0 0 0 0 0 0 0 0 0 0 0 0 0 0 0 0 0 0 0 0 0 0 0 0
0 0 0 0 0 -0 0 0 0 0 0 0 0 0 0 0 0 0 0 0 0 0 0 0 0 0 0 0 0 0 0 0 0 0 0 0 0 0
0 0 0 0 0 0 -0 0 0 0 0 0 0 0 0 -0 0 0 0 0 -0 0 0 0 0 0 0 0 0 0 0 0 0 0 0 0 0 0
0 0 0 0 0 0 0 0 0 0 0 0 0 0 -0 -0 -0 -0 0 0 0 0 0 -0 0 0 0 0 0 0 0 0 0 0 0 0 0 0
0 0 0 0 0 0 0 0 0 0 0 0 0 -0 -0 -0 -0 0 0 0 0 0 0 0 0 0 0 0 0 0 0 0 0 0 0 0 0 0
0 0 0 0 0 0 0 0 0 0 0 -0 -0 -0 0 0 0 0 0 -0 -0 -0 -0 0 0 0 0 0 0 0 0 0 0 0 0 0 0 0
0 0 0 0 0 0 0 0 0 -0 -0 0 -0 0 0 0 0 0 0 0 0 -0 -0 -0 0 0 0 0 0 0 0 0 0 0 0 0 0 0
0 0 0 0 0 0 0 0 -0 -0 -0 -0 -0 0 0 0 0 0 0 -0 0 0 -0 -0 -0 -0 0 0 0 0 0 0 0 0 0 0 0 0
0 0 0 0 0 0 0 -0 -0 -0 0 -0 -0 -0 0 -0 -0 -0 0 0 0 0 -0 -0 -0 -0 0 0 0 0 0 0 0 0 0 0 0 0
0 0 0 0 0 0 0 -0 -0 -0 0 0 -0 0 -0 -0 -0 0 0 0 0 0 0 0 -0 -0 0 0 0 0 0 0 0 0 0 0 0 0
0 0 0 0 0 0 0 0 -0 -0 0 0 0 0 -0 0 0 0 0 0 0 0 0 0 0 0 0 0 0 0 0 0 0 0 0 0 0 0
0 0 0 0 0 0 -0 0 0 -0 0 0 0 -0 -0 -0 -0 0 0 0 0 0 0 0 0 0 0 0 0 0 0 0 0 0 0 0 0 0
Wind_Speed_500mb
38 39 41 42 43 43 45 47 51 64 69 66 53 45 45 45 45 45 46 46 45 46 49 46 48 51 53 54 53 53 57 55 51 48 48 50 52 63
39 40 42 42 43 43 45 47 49 57 69 74 53 47 47 52 51 53 53 53 50 51 52 53 53 54 55 54 55 56 57 56 58 57 52 50 49 54
40 42 46 44 45 45 45 48 52 52 64 88 53 51 57 57 56 54 52 50 49 52 55 56 57 57 55 56 58 58 60 60 58 57 60 56 51 52
45 46 48 46 49 49 50 53 54 54 60 71 60 56 53 49 49 50 48 47 51 52 52 55 59 62 62 63 62 61 62 61 57 59 59 61 56 55
47 49 51 50 55 54 54 55 55 57 57 58 60 48 48 46 49 49 47 48 47 51 55 57 58 59 62 63 64 64 65 66 71 69 64 58 63 59
48 51 53 54 56 55 54 56 56 57 57 62 63 66 51 49 48 47 50 46 46 41 40 46 48 49 56 60 60 60 61 63 64 65 73 67 64 62
54 53 53 54 56 59 62 62 67 63 57 59 62 65 62 58 50 43 45 41 39 41 52 38 39 42 47 53 57 62 60 60 61 63 64 73 70 67
54 58 60 55 57 58 57 56 55 56 54 49 54 62 44 49 43 40 40 43 44 34 36 40 37 38 38 40 44 46 51 56 60 61 60 69 76 75
58 53 54 49 50 47 49 49 52 52 50 51 53 53 53 45 44 42 44 41 46 46 40 37 32 35 37 35 48 52 55 55 55 60 62 65 73 80
52 48 52 48 48 47 50 54 53 51 51 54 50 52 48 47 49 51 53 54 57 54 50 56 43 47 41 40 44 53 53 58 62 61 61 63 66 69
45 46 45 48 50 52 52 59 60 57 50 46 49 53 57 59 51 57 64 62 61 65 57 61 57 54 46 48 46 47 54 61 63 64 66 64 60 60
42 39 44 52 43 45 47 52 52 60 56 49 40 45 47 48 49 54 68 73 69 56 60 56 55 48 47 49 56 58 44 53 68 68 65 65 65 64
51 53 48 47 42 49 50 57 58 42 43 51 51 49 46 51 54 44 46 54 68 64 55 46 48 45 53 39 28 33 41 42 44 65 72 69 65 64
50 48 40 43 46 50 53 51 48 51 56 56 50 41 43 45 36 27 32 32 45 50 46 43 55 47 47 48 46 39 35 33 42 43 46 57 68 67
45 44 48 48 49 53 49 48 46 45 39 41 40 42 42 35 42 38 34 32 32 39 47 53 59 58 55 55 58 46 35 37 39 39 46 51 48 50
47 49 53 51 48 40 38 33 30 30 32 35 36 33 33 37 44 41 41 38 37 42 38 42 51 55 62 65 64 70 69 51 41 43 44 51 49 45
49 49 48 39 36 35 31 33 33 31 32 33 36 36 34 35 39 40 40 43 41 38 39 35 43 48 53 56 64 70 59 56 49 33 43 52 45 46
46 40 35 35 35 37 36 38 32 33 34 34 33 35 37 37 37 31 31 38 43 44 46 40 39 41 44 40 41 44 51 49 45 47 43 47 46 44
32 35 35 37 39 41 39 38 36 33 32 35 35 33 36 37 33 35 40 46 52 55 52 49 46 50 45 47 39 39 37 43 37 49 44 36 37 34
31 36 39 39 41 40 37 40 36 32 31 33 33 34 35 34 38 42 48 57 61 57 55 50 56 57 53 51 47 46 47 37 39 37 39 48 37 31
38 40 41 42 42 42 40 39 36 34 32 33 34 35 34 34 41 49 56 62 58 54 56 54 62 66 52 38 39 38 34 54 44 37 36 43 39 33
44 43 43 42 41 40 40 37 34 34 34 32 35 33 30 35 43 52 61 64 57 49 48 45 45 61 64 59 50 41 42 31 35 57 47 48 35 31
45 45 45 43 40 40 39 35 33 33 32 32 32 29 29 36 39 51 62 52 39 36 36 40 39 55 71 65 49 44 40 35 33 52 63 57 51 38
Wind_Direction_500mb
278 276 275 276 274 272 271 270 272 281 283 280 280 275 272 273 274 275 275 273 270 262 254 252 255 252 248 250 250 248 242 233 231 234 232 233 232 229
281 279 278 276 274 272 271 270 267 269 276 279 283 277 272 273 274 274 275 273 267 259 256 258 258 258 254 252 249 247 243 241 238 232 229 237 235 235
281 280 279 277 274 272 271 270 270 268 269 278 282 278 276 274 275 275 273 270 267 264 260 258 256 256 253 249 247 247 245 240 238 238 236 232 234 235
282 280 278 278 273 272 272 272 270 270 269 274 280 279 278 278 276 273 271 266 264 265 262 259 255 252 250 248 245 242 241 238 237 237 237 236 228 235
282 280 279 277 275 274 273 272 271 270 268 269 274 278 277 276 275 271 269 269 264 262 261 256 256 253 250 249 248 244 239 238 232 228 229 231 222 226
285 283 281 279 277 276 275 273 271 269 263 259 270 274 275 275 270 269 268 267 270 259 262 260 255 256 253 247 244 243 242 240 237 235 230 225 217 218
286 284 282 279 276 273 270 268 271 279 278 276 277 279 284 275 271 272 270 271 265 259 272 255 253 257 252 248 243 240 239 238 237 236 234 225 218 219
286 282 286 280 278 280 278 276 276 276 279 274 278 271 273 275 273 269 267 271 272 266 262 264 242 247 246 244 243 250 240 236 236 236 233 230 224 222
289 290 287 285 281 279 279 278 278 278 276 276 275 271 274 270 269 266 268 265 264 266 261 255 243 247 248 246 246 246 242 240 238 237 234 232 229 228
290 288 283 282 283 279 279 277 280 277 274 271 271 269 266 266 264 266 266 267 265 261 255 254 254 253 253 254 249 251 246 243 238 235 232 232 232 233
293 286 286 284 286 282 283 281 280 286 285 281 276 273 274 270 269 275 272 271 262 266 253 251 250 251 252 251 249 256 255 244 242 237 233 233 231 232
298 293 286 294 291 288 289 286 282 280 280 288 277 278 277 274 273 270 266 263 260 259 262 239 245 245 255 251 254 253 249 247 236 237 235 233 233 233
297 302 302 298 296 297 285 283 279 283 289 286 280 276 273 273 273 274 277 263 245 251 250 250 255 246 238 251 256 250 234 237 246 238 238 237 233 231
298 299 300 300 295 297 297 292 290 292 285 282 280 268 271 275 275 273 281 256 246 249 248 243 247 242 248 239 244 245 241 238 229 229 230 237 234 234
302 301 300 290 298 297 293 292 290 286 280 272 270 272 271 263 266 266 272 268 268 259 252 242 244 249 243 250 246 244 245 244 233 227 224 223 227 227
309 303 304 299 299 297 297 297 292 283 280 270 272 276 274 272 272 270 274 269 266 260 257 254 245 245 244 252 251 248 255 236 241 230 226 218 215 218
307 302 302 300 301 296 298 297 292 281 284 278 273 274 273 273 271 275 275 276 257 262 263 261 254 247 243 250 259 253 233 231 224 233 209 205 209 211
307 302 301 301 297 306 287 300 292 285 280 283 279 271 273 275 278 276 272 270 268 267 259 258 250 239 245 254 239 216 221 230 227 218 205 206 213 212
306 306 304 304 302 305 299 298 291 289 280 278 281 272 273 275 277 278 279 279 279 278 270 257 238 236 229 229 233 220 214 213 209 214 214 200 216 226
311 309 308 308 308 305 300 300 292 289 281 277 277 277 278 274 280 284 289 291 291 286 273 252 232 233 221 225 224 219 211 209 214 215 216 216 220 228
316 312 313 311 309 305 301 296 291 286 279 277 276 276 273 278 286 293 303 306 303 288 274 258 230 228 223 221 215 218 227 218 214 219 221 219 221 230
318 314 313 311 309 306 300 295 288 287 279 274 273 268 272 281 294 308 315 317 313 303 289 279 245 215 218 214 210 213 217 224 230 217 214 210 208 218
317 314 313 314 312 307 301 294 287 281 279 271 268 268 276 289 306 318 326 330 333 311 287 262 241 204 203 212 209 212 212 211 223 210 211 211 205 212
Wind_Speed_850mb
38 39 41 42 43 43 45 47 51 64 69 66 53 45 45 45 45 45 46 46 45 46 49 46 48 51 53 54 53 53 57 55 51 48 48 50 52 63
39 40 42 42 43 43 45 47 49 57 69 74 53 47 47 52 51 53 53 53 50 51 52 53 53 54 55 54 55 56 57 56 58 57 52 50 49 54
40 42 46 44 45 45 45 48 52 52 64 88 53 51 57 57 56 54 52 50 49 52 55 56 57 57 55 56 58 58 60 60 58 57 60 56 51 52
45 46 48 46 49 49 50 53 54 54 60 71 60 56 53 49 49 50 48 47 51 52 52 55 59 62 62 63 62 61 62 61 57 59 59 61 56 55
47 49 51 50 55 54 54 55 55 57 57 58 60 48 48 46 49 49 47 48 47 51 55 57 58 59 62 63 64 64 65 66 71 69 64 58 63 59
48 51 53 54 56 55 54 56 56 57 57 62 63 66 51 49 48 47 50 46 46 41 40 46 48 49 56 60 60 60 61 63 64 65 73 67 64 62
54 53 53 54 56 59 62 62 67 63 57 59 62 65 62 58 50 43 45 41 39 41 52 38 39 42 47 53 57 62 60 60 61 63 64 73 70 67
54 58 60 55 57 58 57 56 55 56 54 49 54 62 44 49 43 40 40 43 44 34 36 40 37 38 38 40 44 46 51 56 60 61 60 69 76 75
58 53 54 49 50 47 49 49 52 52 50 51 53 53 53 45 44 42 44 41 46 46 40 37 32 35 37 35 48 52 55 55 55 60 62 65 73 80
52 48 52 48 48 47 50 54 53 51 51 54 50 52 48 47 49 51 53 54 57 54 50 56 43 47 41 40 44 53 53 58 62 61 61 63 66 69
45 46 45 48 50 52 52 59 60 57 50 46 49 53 57 59 51 57 64 62 61 65 57 61 57 54 46 48 46 47 54 61 63 64 66 64 60 60
42 39 44 52 43 45 47 52 52 60 56 49 40 45 47 48 49 54 68 73 69 56 60 56 55 48 47 49 56 58 44 53 68 68 65 65 65 64
51 53 48 47 42 49 50 57 58 42 43 51 51 49 46 51 54 44 46 54 68 64 55 46 48 45 53 39 28 33 41 42 44 65 72 69 65 64
50 48 40 43 46 50 53 51 48 51 56 56 50 41 43 45 36 27 32 32 45 50 46 43 55 47 47 48 46 39 35 33 42 43 46 57 68 67
45 44 48 48 49 53 49 48 46 45 39 41 40 42 42 35 42 38 34 32 32 39 47 53 59 58 55 55 58 46 35 37 39 39 46 51 48 50
47 49 53 51 48 40 38 33 30 30 32 35 36 33 33 37 44 41 41 38 37 42 38 42 51 55 62 65 64 70 69 51 41 43 44 51 49 45
49 49 48 39 36 35 31 33 33 31 32 33 36 36 34 35 39 40 40 43 41 38 39 35 43 48 53 56 64 70 59 56 49 33 43 52 45 46
46 40 35 35 35 37 36 38 32 33 34 34 33 35 37 37 37 31 31 38 43 44 46 40 39 41 44 40 41 44 51 49 45 47 43 47 46 44
32 35 35 37 39 41 39 38 36 33 32 35 35 33 36 37 33 35 40 46 52 55 52 49 46 50 45 47 39 39 37 43 37 49 44 36 37 34
31 36 39 39 41 40 37 40 36 32 31 33 33 34 35 34 38 42 48 57 61 57 55 50 56 57 53 51 47 46 47 37 39 37 39 48 37 31
38 40 41 42 42 42 40 39 36 34 32 33 34 35 34 34 41 49 56 62 58 54 56 54 62 66 52 38 39 38 34 54 44 37 36 43 39 33
44 43 43 42 41 40 40 37 34 34 34 32 35 33 30 35 43 52 61 64 57 49 48 45 45 61 64 59 50 41 42 31 35 57 47 48 35 31
45 45 45 43 40 40 39 35 33 33 32 32 32 29 29 36 39 51 62 52 39 36 36 40 39 55 71 65 49 44 40 35 33 52 63 57 51 38
Wind_Direction_850mb
278 276 275 276 274 272 271 270 272 281 283 280 280 275 272 273 274 275 275 273 270 262 254 252 255 252 248 250 250 248 242 233 231 234 232 233 232 229
281 279 278 276 274 272 271 270 267 269 276 279 283 277 272 273 274 274 275 273 267 259 256 258 258 258 254 252 249 247 243 241 238 232 229 237 235 235
281 280 279 277 274 272 271 270 270 268 269 278 282 278 276 274 275 275 273 270 267 264 260 258 256 256 253 249 247 247 245 240 238 238 236 232 234 235
282 280 278 278 273 272 272 272 270 270 269 274 280 279 278 278 276 273 271 266 264 265 262 259 255 252 250 248 245 242 241 238 237 237 237 236 228 235
282 280 279 277 275 274 273 272 271 270 268 269 274 278 277 276 275 271 269 269 264 262 261 256 256 253 250 249 248 244 239 238 232 228 229 231 222 226
285 283 281 279 277 276 275 273 271 269 263 259 270 274 275 275 270 269 268 267 270 259 262 260 255 256 253 247 244 243 242 240 237 235 230 225 217 218
286 284 282 279 276 273 270 268 271 279 278 276 277 279 284 275 271 272 270 271 265 259 272 255 253 257 252 248 243 240 239 238 237 236 234 225 218 219
286 282 286 280 278 280 278 276 276 276 279 274 278 271 273 275 273 269 267 271 272 266 262 264 242 247 246 244 243 250 240 236 236 236 233 230 224 222
289 290 287 285 281 279 279 278 278 278 276 276 275 271 274 270 269 266 268 265 264 266 261 255 243 247 248 246 246 246 242 240 238 237 234 232 229 228
290 288 283 282 283 279 279 277 280 277 274 271 271 269 266 266 264 266 266 267 265 261 255 254 254 253 253 254 249 251 246 243 238 235 232 232 232 233
293 286 286 284 286 282 283 281 280 286 285 281 276 273 274 270 269 275 272 271 262 266 253 251 250 251 252 251 249 256 255 244 242 237 233 233 231 232
298 293 286 294 291 288 289 286 282 280 280 288 277 278 277 274 273 270 266 263 260 259 262 239 245 245 255 251 254 253 249 247 236 237 235 233 233 233
297 302 302 298 296 297 285 283 279 283 289 286 280 276 273 273 273 274 277 263 245 251 250 250 255 246 238 251 256 250 234 237 246 238 238 237 233 231
298 299 300 300 295 297 297 292 290 292 285 282 280 268 271 275 275 273 281 256 246 249 248 243 247 242 248 239 244 245 241 238 229 229 230 237 234 234
302 301 300 290 298 297 293 292 290 286 280 272 270 272 271 263 266 266 272 268 268 259 252 242 244 249 243 250 246 244 245 244 233 227 224 223 227 227
309 303 304 299 299 297 297 297 292 283 280 270 272 276 274 272 272 270 274 269 266 260 257 254 245 245 244 252 251 248 255 236 241 230 226 218 215 218
307 302 302 300 301 296 298 297 292 281 284 278 273 274 273 273 271 275 275 276 257 262 263 261 254 247 243 250 259 253 233 231 224 233 209 205 209 211
307 302 301 301 297 306 287 300 292 285 280 283 279 271 273 275 278 276 272 270 268 267 259 258 250 239 245 254 239 216 221 230 227 218 205 206 213 212
306 306 304 304 302 305 299 298 291 289 280 278 281 272 273 275 277 278 279 279 279 278 270 257 238 236 229 229 233 220 214 213 209 214 214 200 216 226
311 309 308 308 308 305 300 300 292 289 281 277 277 277 278 274 280 284 289 291 291 286 273 252 232 233 221 225 224 219 211 209 214 215 216 216 220 228
316 312 313 311 309 305 301 296 291 286 279 277 276 276 273 278 286 293 303 306 303 288 274 258 230 228 223 221 215 218 227 218 214 219 221 219 221 230
318 314 313 311 309 306 300 295 288 287 279 274 273 268 272 281 294 308 315 317 313 303 289 279 245 215 218 214 210 213 217 224 230 217 214 210 208 218
317 314 313 314 312 307 301 294 287 281 279 271 268 268 276 289 306 318 326 330 333 311 287 262 241 204 203 212 209 212 212 211 223 210 211 211 205 212